Change the Weather History Date:

Monday, February 25, 2013

  Actual Average Record
Temperature  
Mean Temperature 15 °F -  
Max Temperature 24 °F 26 °F 56 °F (1958)
Min Temperature 6 °F 1 °F -32 °F (1950)
Degree Days  
Heating Degree Days 50    
Moisture  
Dew Point 15 °F    
Average Humidity 92    
Maximum Humidity 100    
Minimum Humidity 80    
Precipitation  
Precipitation 0.00 in - - ()
Sea Level Pressure  
Sea Level Pressure 30.01 in    
Wind  
Wind Speed 7 mph (SSW)    
Max Wind Speed 12 mph    
Max Gust Speed -    
Visibility 2 miles    
Events Fog    
Averages and records for this station are not official NWS values.
T = Trace of Precipitation, MM = Missing Value Source: NWS Daily Summary

Daily Weather History Graph

Daily Weather History Graph

Search for Another Location

Airport or City:

Trip Planner

Search our weather history database for the weather conditions in past years. The results will help you decide how hot, cold, wet, or windy it might be!

Date:

Astronomy

Feb. 25, 2013 Rise Set
Actual Time 7:10 AM CST 6:02 PM CST
Civil Twilight 6:39 AM CST 6:33 PM CST
Nautical Twilight 6:03 AM CST 7:09 PM CST
Astronomical Twilight 5:28 AM CST 7:44 PM CST
Moon 6:21 PM CST (2/25) 6:38 AM CST (2/25)
Length of Visible Light 11h 53m
Length of Day
10h 51m
Full, 100% of the Moon is Illuminated
Feb 25
Full
Feb 25
Full
Mar 4
Last Quarter
Mar 11
New
Mar 19
First Quarter

Hourly Weather History & Observations

Time (CST) Temp. Windchill Dew Point Humidity Pressure Visibility Wind Dir Wind Speed Gust Speed Precip Events Conditions
12:15 AM 17.6 °F 5.0 °F 14.0 °F 86% 30.02 in 5.0 mi SSW 11.5 mph - N/A   Overcast
12:35 AM 15.8 °F 4.2 °F 15.8 °F 100% 30.02 in 4.0 mi SSW 9.2 mph - N/A   Overcast
12:55 AM 15.8 °F 4.2 °F 15.8 °F 100% 30.02 in 4.0 mi South 9.2 mph - N/A   Overcast
1:15 AM 15.8 °F 5.1 °F 15.8 °F 100% 30.02 in 5.0 mi South 8.1 mph - N/A   Overcast
1:35 AM 15.8 °F 5.1 °F 14.0 °F 93% 30.02 in 7.0 mi South 8.1 mph - N/A   Overcast
1:55 AM 15.8 °F 4.2 °F 14.0 °F 93% 30.02 in 7.0 mi South 9.2 mph - N/A   Overcast
2:15 AM 17.6 °F 6.4 °F 15.8 °F 93% 30.02 in 5.0 mi South 9.2 mph - N/A   Overcast
2:35 AM 17.6 °F 6.4 °F 15.8 °F 93% 30.02 in 3.0 mi South 9.2 mph - N/A   Overcast
2:55 AM 17.6 °F 6.4 °F 15.8 °F 93% 30.01 in 1.5 mi South 9.2 mph - N/A   Overcast
3:15 AM 17.6 °F 6.4 °F 15.8 °F 93% 30.01 in 1.0 mi SSW 9.2 mph - N/A   Overcast
3:35 AM 17.6 °F 6.4 °F 15.8 °F 93% 30.01 in 0.8 mi South 9.2 mph - N/A   Overcast
3:55 AM 17.6 °F 8.2 °F 15.8 °F 93% 30.01 in 0.8 mi SSW 6.9 mph - N/A   Overcast
4:15 AM 17.6 °F 7.3 °F 15.8 °F 93% 30.01 in 1.0 mi SSW 8.1 mph - N/A   Overcast
4:35 AM 17.6 °F 7.3 °F 17.6 °F 100% 30.01 in 1.2 mi SSW 8.1 mph - N/A   Overcast
4:55 AM 17.6 °F 7.3 °F 15.8 °F 93% 30.01 in 1.2 mi SSW 8.1 mph - N/A   Overcast
5:15 AM 17.6 °F 8.2 °F 15.8 °F 93% 30.01 in 1.2 mi SSW 6.9 mph - N/A   Overcast
5:35 AM 17.6 °F 9.3 °F 17.6 °F 100% 30.00 in 1.0 mi SSW 5.8 mph - N/A   Overcast
5:55 AM 17.6 °F 8.2 °F 17.6 °F 100% 30.01 in 0.5 mi WSW 6.9 mph - N/A Fog Light Freezing Fog
6:14 AM 17.6 °F 9.3 °F 17.6 °F 100% 30.01 in 0.2 mi SW 5.8 mph - N/A Fog Light Freezing Fog
6:35 AM 17.6 °F 8.2 °F 15.8 °F 93% 30.01 in 0.2 mi SSW 6.9 mph - N/A Fog Light Freezing Fog
6:55 AM 17.6 °F 9.3 °F 15.8 °F 93% 30.02 in 0.2 mi SSW 5.8 mph - N/A Fog Light Freezing Fog
7:15 AM 15.8 °F 8.6 °F 15.8 °F 100% 30.02 in 0.2 mi SSW 4.6 mph - N/A Fog Light Freezing Fog
7:35 AM 15.8 °F 7.2 °F 14.0 °F 93% 30.03 in 0.2 mi SW 5.8 mph - N/A Fog Light Freezing Fog
7:55 AM 15.8 °F - 14.0 °F 93% 30.03 in 0.2 mi Calm Calm - N/A Fog Light Freezing Fog
8:15 AM 15.8 °F 7.2 °F 14.0 °F 93% 30.03 in 0.2 mi SSW 5.8 mph - N/A Fog Light Freezing Fog
8:35 AM 15.8 °F 7.2 °F 15.8 °F 100% 30.03 in 0.2 mi SW 5.8 mph - N/A Fog Light Freezing Fog
8:55 AM 15.8 °F 7.2 °F 14.0 °F 93% 30.03 in 0.2 mi SSW 5.8 mph - N/A Fog Light Freezing Fog
9:15 AM 17.6 °F 8.2 °F 15.8 °F 93% 30.03 in 0.2 mi SSW 6.9 mph - N/A Fog Light Freezing Fog
9:35 AM 17.6 °F 9.3 °F 15.8 °F 93% 30.04 in 0.2 mi SSW 5.8 mph - N/A Fog Light Freezing Fog
9:55 AM 17.6 °F 10.7 °F 15.8 °F 93% 30.04 in 0.2 mi SSW 4.6 mph - N/A Fog Light Freezing Fog
10:15 AM 17.6 °F 9.3 °F 15.8 °F 93% 30.04 in 0.2 mi SSW 5.8 mph - N/A Fog Light Freezing Fog
10:35 AM 17.6 °F 10.7 °F 15.8 °F 93% 30.04 in 0.2 mi South 4.6 mph - N/A Fog Light Freezing Fog
10:55 AM 19.4 °F 11.5 °F 15.8 °F 86% 30.05 in 0.2 mi South 5.8 mph - N/A Fog Light Freezing Fog
11:15 AM 19.4 °F 12.8 °F 15.8 °F 86% 30.04 in 0.2 mi SSW 4.6 mph - N/A Fog Light Freezing Fog
11:35 AM 19.4 °F 12.8 °F 15.8 °F 86% 30.03 in 0.5 mi South 4.6 mph - N/A Fog Light Freezing Fog
11:55 AM 19.4 °F 11.5 °F 15.8 °F 86% 30.03 in 0.8 mi South 5.8 mph - N/A   Overcast
12:15 PM 21.2 °F 16.4 °F 17.6 °F 86% 30.02 in 0.8 mi SSW 3.5 mph - N/A   Overcast
12:35 PM 21.2 °F 14.9 °F 17.6 °F 86% 30.02 in 0.8 mi SSW 4.6 mph - N/A   Haze
12:55 PM 21.2 °F 14.9 °F 17.6 °F 86% 30.02 in 0.8 mi SSW 4.6 mph - N/A   Overcast
1:15 PM 21.2 °F 12.6 °F 17.6 °F 86% 30.01 in 0.5 mi SSW 6.9 mph - N/A Fog Light Freezing Fog
1:35 PM 21.2 °F 14.9 °F 19.4 °F 93% 30.00 in 1.2 mi SSW 4.6 mph - N/A   Overcast
1:55 PM 23.0 °F 15.8 °F 19.4 °F 86% 30.00 in 1.5 mi SSW 5.8 mph - N/A   Overcast
2:15 PM 23.0 °F 15.8 °F 19.4 °F 86% 30.00 in 2.0 mi SSW 5.8 mph - N/A   Overcast
2:35 PM 23.0 °F 14.7 °F 19.4 °F 86% 30.01 in 2.0 mi South 6.9 mph - N/A   Overcast
2:55 PM 21.2 °F 12.6 °F 19.4 °F 93% 30.01 in 1.5 mi SSW 6.9 mph - N/A   Overcast
3:15 PM 21.2 °F 12.6 °F 19.4 °F 93% 30.00 in 1.5 mi South 6.9 mph - N/A   Overcast
3:35 PM 23.0 °F 15.8 °F 19.4 °F 86% 30.00 in 1.8 mi South 5.8 mph - N/A   Overcast
3:55 PM 23.0 °F 15.8 °F 19.4 °F 86% 30.00 in 2.5 mi South 5.8 mph - N/A   Mostly Cloudy
4:15 PM 24.8 °F - 19.4 °F 80% 30.00 in 3.0 mi Calm Calm - N/A   Scattered Clouds
4:35 PM 24.8 °F 19.1 °F 19.4 °F 80% 30.00 in 4.0 mi South 4.6 mph - N/A   Haze
4:55 PM 24.8 °F 19.1 °F 19.4 °F 80% 30.00 in 4.0 mi South 4.6 mph - N/A   Clear
8:07 PM 12.2 °F 4.3 °F 12.2 °F 100% 30.00 in 7.0 mi South 4.6 mph - N/A   Clear
8:15 PM 12.2 °F 6.1 °F 10.4 °F 92% 30.00 in 7.0 mi South 3.5 mph - N/A   Clear
8:35 PM 12.2 °F 6.1 °F 10.4 °F 92% 30.00 in 7.0 mi South 3.5 mph - N/A   Clear
8:55 PM 12.2 °F - 10.4 °F 92% 30.00 in 7.0 mi Calm Calm - N/A   Clear
9:15 PM 12.2 °F - 10.4 °F 92% 29.99 in 5.0 mi Calm Calm - N/A   Clear
9:35 PM 10.4 °F 2.2 °F 8.6 °F 92% 29.99 in 3.0 mi South 4.6 mph - N/A   Clear
9:55 PM 10.4 °F 2.2 °F 8.6 °F 92% 29.99 in 2.5 mi South 4.6 mph - N/A   Clear
10:15 PM 10.4 °F 2.2 °F 6.8 °F 85% 29.99 in 3.0 mi South 4.6 mph - N/A   Clear
10:35 PM 8.6 °F -1.3 °F 6.8 °F 92% 29.99 in 4.0 mi South 5.8 mph - N/A   Clear
10:55 PM 8.6 °F 2.0 °F 6.8 °F 92% 29.99 in 3.0 mi South 3.5 mph - N/A   Clear
11:15 PM 8.6 °F - 6.8 °F 92% 29.99 in 3.0 mi Calm Calm - N/A   Clear
11:35 PM 6.8 °F - 5.0 °F 92% 29.99 in 4.0 mi Calm Calm - N/A   Clear
11:55 PM 6.8 °F - 3.2 °F 85% 29.99 in 4.0 mi Calm Calm - N/A   Clear